Time,TemperatureF,DewpointF,PressureIn,WindDirection,WindDirectionDegrees,WindSpeedMPH,WindSpeedGustMPH,Humidity,HourlyPrecipIn,Conditions,Clouds,dailyrainin,SolarRadiationWatts/m^2,SoftwareType,DateUTC
2013-05-28 00:02:00,51.2,50.1,29.89,SE,134,5.0,5.0,96,0.00,,,0.06,0,Wunderground v.1.15,2013-05-28 05:02:00,
2013-05-28 00:08:00,51.2,50.1,29.88,East,82,6.0,7.0,96,0.00,,,0.00,0,Wunderground v.1.15,2013-05-28 05:08:00,
2013-05-28 00:13:00,51.2,50.1,29.88,ENE,72,5.0,7.0,96,0.00,,,0.00,0,Wunderground v.1.15,2013-05-28 05:13:00,
2013-05-28 00:18:00,51.2,50.1,29.87,East,86,9.0,9.0,96,0.00,,,0.00,0,Wunderground v.1.15,2013-05-28 05:18:00,
2013-05-28 00:23:00,51.2,50.1,29.87,East,88,7.0,8.0,96,0.00,,,0.00,0,Wunderground v.1.15,2013-05-28 05:23:00,
2013-05-28 00:29:00,51.2,50.1,29.87,ESE,104,7.0,9.0,96,0.00,,,0.00,0,Wunderground v.1.15,2013-05-28 05:29:00,
2013-05-28 00:34:00,51.2,50.1,29.87,East,89,6.0,8.0,96,0.00,,,0.00,0,Wunderground v.1.15,2013-05-28 05:34:00,
2013-05-28 00:40:00,51.2,50.1,29.87,East,80,3.0,6.0,96,0.00,,,0.00,0,Wunderground v.1.15,2013-05-28 05:40:00,
2013-05-28 00:46:00,51.2,50.1,29.86,SE,136,3.0,6.0,96,0.00,,,0.00,0,Wunderground v.1.15,2013-05-28 05:46:00,
2013-05-28 00:51:00,51.2,50.1,29.86,ESE,117,5.0,6.0,96,0.00,,,0.00,0,Wunderground v.1.15,2013-05-28 05:51:00,
2013-05-28 00:57:00,51.2,50.1,29.86,ESE,109,4.0,7.0,96,0.00,,,0.00,0,Wunderground v.1.15,2013-05-28 05:57:00,
2013-05-28 01:02:00,51.3,50.2,29.86,ESE,112,3.0,4.0,96,0.00,,,0.00,0,Wunderground v.1.15,2013-05-28 06:02:00,
2013-05-28 01:07:00,51.4,50.3,29.86,ESE,121,2.0,5.0,96,0.00,,,0.00,0,Wunderground v.1.15,2013-05-28 06:07:00,
2013-05-28 01:13:00,51.4,50.3,29.85,ESE,121,3.0,4.0,96,0.00,,,0.00,0,Wunderground v.1.15,2013-05-28 06:13:00,
2013-05-28 01:18:00,51.3,50.2,29.84,ESE,120,4.0,4.0,96,0.00,,,0.01,0,Wunderground v.1.15,2013-05-28 06:18:00,
2013-05-28 01:23:00,51.4,50.3,29.84,ESE,120,1.0,3.0,96,0.00,,,0.01,0,Wunderground v.1.15,2013-05-28 06:23:00,
2013-05-28 01:29:00,51.4,50.3,29.83,ESE,120,4.0,4.0,96,0.00,,,0.01,0,Wunderground v.1.15,2013-05-28 06:29:00,
2013-05-28 01:35:00,51.4,50.3,29.83,ESE,120,4.0,5.0,96,0.00,,,0.01,0,Wunderground v.1.15,2013-05-28 06:35:00,
2013-05-28 01:40:00,51.4,50.3,29.82,East,86,5.0,6.0,96,0.00,,,0.01,0,Wunderground v.1.15,2013-05-28 06:40:00,
2013-05-28 01:45:00,51.4,50.3,29.82,ESE,107,3.0,8.0,96,0.00,,,0.01,0,Wunderground v.1.15,2013-05-28 06:45:00,
2013-05-28 01:51:00,51.4,50.3,29.83,ESE,105,4.0,4.0,96,0.00,,,0.01,0,Wunderground v.1.15,2013-05-28 06:51:00,
2013-05-28 01:56:00,51.4,50.3,29.82,ESE,115,4.0,5.0,96,0.00,,,0.01,0,Wunderground v.1.15,2013-05-28 06:56:00,
2013-05-28 02:01:00,51.4,50.3,29.82,ESE,103,8.0,8.0,96,0.00,,,0.01,0,Wunderground v.1.15,2013-05-28 07:01:00,
2013-05-28 02:06:00,51.5,50.4,29.83,ESE,117,3.0,9.0,96,0.00,,,0.01,0,Wunderground v.1.15,2013-05-28 07:06:00,
2013-05-28 02:11:00,51.5,50.4,29.83,ENE,74,1.0,5.0,96,0.00,,,0.01,0,Wunderground v.1.15,2013-05-28 07:11:00,
2013-05-28 02:16:00,51.5,50.4,29.83,ESE,108,5.0,6.0,96,0.00,,,0.01,0,Wunderground v.1.15,2013-05-28 07:16:00,
2013-05-28 02:21:00,51.5,50.4,29.82,ESE,107,4.0,5.0,96,0.00,,,0.01,0,Wunderground v.1.15,2013-05-28 07:21:00,
2013-05-28 02:26:00,51.5,50.4,29.82,ENE,62,3.0,6.0,96,0.00,,,0.01,0,Wunderground v.1.15,2013-05-28 07:26:00,
2013-05-28 02:31:00,51.4,50.3,29.82,East,79,2.0,6.0,96,0.00,,,0.01,0,Wunderground v.1.15,2013-05-28 07:31:00,
2013-05-28 02:36:00,51.5,50.4,29.82,East,80,3.0,6.0,96,0.00,,,0.01,0,Wunderground v.1.15,2013-05-28 07:36:00,
2013-05-28 02:41:00,51.5,50.4,29.82,NE,44,5.0,7.0,96,0.00,,,0.01,0,Wunderground v.1.15,2013-05-28 07:41:00,
2013-05-28 02:46:00,51.4,50.3,29.82,ENE,66,3.0,8.0,96,0.00,,,0.01,0,Wunderground v.1.15,2013-05-28 07:46:00,
2013-05-28 02:51:00,51.4,50.3,29.82,ENE,76,3.0,5.0,96,0.00,,,0.01,0,Wunderground v.1.15,2013-05-28 07:51:00,
2013-05-28 02:56:00,51.4,50.3,29.81,ENE,76,2.0,5.0,96,0.00,,,0.01,0,Wunderground v.1.15,2013-05-28 07:56:00,
2013-05-28 03:01:00,51.4,50.3,29.81,NE,50,3.0,5.0,96,0.00,,,0.01,0,Wunderground v.1.15,2013-05-28 08:01:00,
2013-05-28 03:06:00,51.3,50.2,29.81,NE,50,2.0,5.0,96,0.00,,,0.01,0,Wunderground v.1.15,2013-05-28 08:06:00,
2013-05-28 03:11:00,51.4,50.3,29.81,East,96,7.0,7.0,96,0.00,,,0.01,0,Wunderground v.1.15,2013-05-28 08:11:00,
2013-05-28 03:16:00,51.4,50.3,29.81,ESE,108,7.0,8.0,96,0.00,,,0.01,0,Wunderground v.1.15,2013-05-28 08:16:00,
2013-05-28 03:21:00,51.4,50.3,29.81,ESE,108,2.0,5.0,96,0.00,,,0.01,0,Wunderground v.1.15,2013-05-28 08:21:00,
2013-05-28 03:26:00,51.4,50.6,29.81,ESE,108,2.0,5.0,97,0.00,,,0.01,0,Wunderground v.1.15,2013-05-28 08:26:00,
2013-05-28 03:32:00,51.4,50.6,29.81,ESE,108,4.0,4.0,97,0.00,,,0.02,0,Wunderground v.1.15,2013-05-28 08:32:00,
2013-05-28 03:37:00,51.4,50.6,29.80,East,83,7.0,7.0,97,0.00,,,0.02,0,Wunderground v.1.15,2013-05-28 08:37:00,
2013-05-28 03:42:00,51.4,50.6,29.80,ESE,111,7.0,8.0,97,0.00,,,0.02,0,Wunderground v.1.15,2013-05-28 08:42:00,
2013-05-28 03:47:00,51.4,50.6,29.81,East,100,3.0,8.0,97,0.00,,,0.02,0,Wunderground v.1.15,2013-05-28 08:47:00,
2013-05-28 03:52:00,51.4,50.6,29.80,East,100,2.0,5.0,97,0.00,,,0.02,0,Wunderground v.1.15,2013-05-28 08:52:00,
2013-05-28 03:57:00,51.5,50.7,29.80,East,99,5.0,7.0,97,0.00,,,0.02,0,Wunderground v.1.15,2013-05-28 08:57:00,
2013-05-28 04:02:00,51.5,50.7,29.80,ENE,61,9.0,9.0,97,0.00,,,0.02,0,Wunderground v.1.15,2013-05-28 09:02:00,
2013-05-28 04:07:00,51.5,50.7,29.79,ENE,62,4.0,9.0,97,0.00,,,0.02,0,Wunderground v.1.15,2013-05-28 09:07:00,
2013-05-28 04:12:00,51.5,50.7,29.79,East,94,7.0,9.0,97,0.00,,,0.02,0,Wunderground v.1.15,2013-05-28 09:12:00,
2013-05-28 04:17:00,51.5,50.7,29.79,East,80,3.0,9.0,97,0.00,,,0.02,0,Wunderground v.1.15,2013-05-28 09:17:00,
2013-05-28 04:22:00,51.5,50.7,29.79,East,80,6.0,8.0,97,0.00,,,0.02,0,Wunderground v.1.15,2013-05-28 09:22:00,
2013-05-28 04:27:00,51.5,50.7,29.79,ENE,65,4.0,8.0,97,0.00,,,0.02,0,Wunderground v.1.15,2013-05-28 09:27:00,
2013-05-28 04:32:00,51.5,50.7,29.79,ENE,77,2.0,7.0,97,0.00,,,0.02,0,Wunderground v.1.15,2013-05-28 09:32:00,
2013-05-28 04:37:00,51.5,50.7,29.78,ENE,67,7.0,7.0,97,0.00,,,0.02,0,Wunderground v.1.15,2013-05-28 09:37:00,
2013-05-28 04:42:00,51.5,50.4,29.78,NE,46,5.0,7.0,96,0.00,,,0.02,0,Wunderground v.1.15,2013-05-28 09:42:00,
2013-05-28 04:47:00,51.5,50.4,29.78,NE,37,4.0,8.0,96,0.00,,,0.02,0,Wunderground v.1.15,2013-05-28 09:47:00,
2013-05-28 04:52:00,51.5,50.7,29.79,NNE,25,4.0,6.0,97,0.00,,,0.02,0,Wunderground v.1.15,2013-05-28 09:52:00,
2013-05-28 04:57:00,51.5,50.7,29.78,NE,41,4.0,7.0,97,0.00,,,0.02,0,Wunderground v.1.15,2013-05-28 09:57:00,
2013-05-28 05:02:00,51.5,50.7,29.78,ENE,76,5.0,8.0,97,0.00,,,0.03,0,Wunderground v.1.15,2013-05-28 10:02:00,
2013-05-28 05:07:00,51.5,50.7,29.77,NE,46,5.0,9.0,97,0.00,,,0.03,0,Wunderground v.1.15,2013-05-28 10:07:00,
2013-05-28 05:12:00,51.5,50.7,29.77,NE,53,3.0,8.0,97,0.00,,,0.03,0,Wunderground v.1.15,2013-05-28 10:12:00,
2013-05-28 05:17:00,51.5,50.7,29.77,East,87,2.0,8.0,97,0.00,,,0.03,0,Wunderground v.1.15,2013-05-28 10:17:00,
2013-05-28 05:22:00,51.4,50.6,29.77,NE,51,3.0,5.0,97,0.00,,,0.03,0,Wunderground v.1.15,2013-05-28 10:22:00,
2013-05-28 05:28:00,51.5,50.7,29.79,NE,51,0.0,5.0,97,0.00,,,0.04,0,Wunderground v.1.15,2013-05-28 10:28:00,
2013-05-28 05:33:00,51.5,50.7,29.77,East,82,8.0,9.0,97,0.13,,,0.05,0,Wunderground v.1.15,2013-05-28 10:33:00,
2013-05-28 05:38:00,51.5,50.7,29.76,ENE,71,7.0,10.0,97,0.40,,,0.09,0,Wunderground v.1.15,2013-05-28 10:38:00,
2013-05-28 05:43:00,51.6,50.8,29.76,ENE,57,1.0,8.0,97,0.17,,,0.10,0,Wunderground v.1.15,2013-05-28 10:43:00,
2013-05-28 05:48:00,51.6,50.8,29.77,ENE,57,0.0,8.0,97,0.07,,,0.11,0,Wunderground v.1.15,2013-05-28 10:48:00,
2013-05-28 05:53:00,51.6,50.8,29.76,NE,51,3.0,7.0,97,0.18,,,0.12,0,Wunderground v.1.15,2013-05-28 10:53:00,
2013-05-28 05:58:00,51.6,50.8,29.77,NE,51,0.0,7.0,97,0.20,,,0.14,0,Wunderground v.1.15,2013-05-28 10:58:00,
2013-05-28 06:03:00,51.6,50.8,29.78,NE,51,0.0,3.0,97,0.17,,,0.15,0,Wunderground v.1.15,2013-05-28 11:03:00,
2013-05-28 06:08:00,51.6,50.8,29.78,NE,51,0.0,3.0,97,0.17,,,0.17,0,Wunderground v.1.15,2013-05-28 11:08:00,
2013-05-28 06:13:00,51.6,50.8,29.78,NE,51,2.0,4.0,97,0.24,,,0.18,0,Wunderground v.1.15,2013-05-28 11:13:00,
2013-05-28 06:18:00,51.6,50.8,29.78,NE,51,2.0,4.0,97,0.14,,,0.20,0,Wunderground v.1.15,2013-05-28 11:18:00,
2013-05-28 06:23:00,51.6,50.8,29.79,NE,51,0.0,2.0,97,0.12,,,0.21,0,Wunderground v.1.15,2013-05-28 11:23:00,
2013-05-28 06:28:00,51.7,50.9,29.79,NE,51,0.0,2.0,97,0.14,,,0.22,0,Wunderground v.1.15,2013-05-28 11:28:00,
2013-05-28 06:33:00,51.7,50.9,29.81,SW,236,0.0,4.0,97,0.39,,,0.24,0,Wunderground v.1.15,2013-05-28 11:33:00,
2013-05-28 06:38:00,51.8,51.0,29.81,SW,236,1.0,4.0,97,0.61,,,0.28,0,Wunderground v.1.15,2013-05-28 11:38:00,
2013-05-28 06:43:00,51.8,51.0,29.80,North,350,4.0,4.0,97,0.51,,,0.32,5,Wunderground v.1.15,2013-05-28 11:43:00,
2013-05-28 06:48:00,51.7,50.9,29.80,North,11,3.0,5.0,97,0.19,,,0.34,5,Wunderground v.1.15,2013-05-28 11:48:00,
2013-05-28 06:53:00,51.7,50.9,29.79,North,11,0.0,3.0,97,0.15,,,0.35,7,Wunderground v.1.15,2013-05-28 11:53:00,
2013-05-28 06:58:00,51.6,50.8,29.76,ENE,61,4.0,8.0,97,0.26,,,0.37,9,Wunderground v.1.15,2013-05-28 11:58:00,
2013-05-28 07:03:00,51.6,50.8,29.77,ENE,75,4.0,6.0,97,0.26,,,0.40,11,Wunderground v.1.15,2013-05-28 12:03:00,
2013-05-28 07:08:00,51.6,50.8,29.76,NE,50,4.0,9.0,97,0.16,,,0.42,19,Wunderground v.1.15,2013-05-28 12:08:00,
2013-05-28 07:13:00,51.7,50.9,29.77,ENE,60,3.0,7.0,97,0.11,,,0.42,21,Wunderground v.1.15,2013-05-28 12:13:00,
2013-05-28 07:18:00,51.7,50.9,29.76,ENE,60,4.0,7.0,97,0.08,,,0.43,30,Wunderground v.1.15,2013-05-28 12:18:00,
2013-05-28 07:23:00,51.7,50.9,29.75,ENE,58,1.0,5.0,97,0.07,,,0.43,28,Wunderground v.1.15,2013-05-28 12:23:00,
2013-05-28 07:28:00,51.7,50.9,29.75,NE,55,4.0,5.0,97,0.05,,,0.43,26,Wunderground v.1.15,2013-05-28 12:28:00,
2013-05-28 07:33:00,51.7,50.9,29.75,ENE,75,4.0,7.0,97,0.00,,,0.43,23,Wunderground v.1.15,2013-05-28 12:33:00,
2013-05-28 07:38:00,51.8,51.0,29.77,SSE,156,4.0,7.0,97,0.00,,,0.43,14,Wunderground v.1.15,2013-05-28 12:38:00,
2013-05-28 07:43:00,51.9,51.1,29.76,East,85,5.0,7.0,97,0.00,,,0.44,39,Wunderground v.1.15,2013-05-28 12:43:00,
2013-05-28 07:48:00,52.0,51.2,29.77,ENE,68,0.0,7.0,97,0.19,,,0.46,23,Wunderground v.1.15,2013-05-28 12:48:00,
2013-05-28 23:36:00,63.2,61.7,29.76,ESE,115,0.0,0.0,95,0.00,,,0.56,0,Wunderground v.1.15,2013-05-29 04:36:00,
2013-05-28 23:41:00,63.1,61.6,29.76,ESE,115,0.0,1.0,95,0.00,,,0.56,0,Wunderground v.1.15,2013-05-29 04:41:00,
2013-05-28 23:46:00,63.1,61.6,29.76,ESE,115,0.0,0.0,95,0.00,,,0.56,0,Wunderground v.1.15,2013-05-29 04:46:00,
2013-05-28 23:51:00,63.1,61.6,29.76,ESE,115,0.0,0.0,95,0.00,,,0.56,0,Wunderground v.1.15,2013-05-29 04:51:00,
2013-05-28 23:56:00,63.1,61.9,29.76,ESE,115,0.0,0.0,96,0.00,,,0.56,0,Wunderground v.1.15,2013-05-29 04:56:00,